Tracking 31013 objects as of 10-Jul-2025
HD Live streaming from Space Station
objects crossing your sky now

DELTA 1 DEB

Track DELTA 1 DEB now!
10-day predictions


NORAD ID: 10754
Int'l Code: 1976-077BB
Perigee: 1,494.5 km
Apogee: 1,690.2 km
Inclination: 102.7 °
Period: 117.9 minutes
Semi major axis: 7963 km
RCS: 0.0279 m2 (small)
Launch date: July 29, 1976
Source: United States (US)
Launch site: AIR FORCE WESTERN TEST RANGE (AFWTR)

Note: This is SATELLITE DEBRIS
Your satellite tracking list
Your tracking list is empty




NASA's NSSDC Master Catalog

Two Line Element Set (TLE):
1 10754U 76077BB  25190.91395200 -.00000043  00000-0  33284-4 0  9992
2 10754 102.6735 172.3435 0122862 322.1708  64.5145 12.21677592183764
Source of the keplerian elements: AFSPC